Voltar ao catálogo

COSMOS 2251 DEB

AtivoLEO
NORAD 34412·DEBRIS·🇷🇺 Russia

Lançado Jun 16, 1993 de Plesetsk Cosmodrome

Loading…

Próximas Passagens (próximas 24 horas)

TLE

AtualizadoSource: Space-Track

Época: Sep 14, 2026, 09:58 UTC

1 34412U 93036RD  26257.41536441  .00001346  00000-0  29033-3 0  9999
2 34412  73.9467 165.0183 0185780 198.9351 160.4841 14.49271028916425

Acompanhe COSMOS 2251 DEB em tempo real com AllMySat

Download on the App Store